Weather in Mucuri

Brazil     18°02′41″S   39°51′45″W
temp.,
°C
wind,
m/s
gust,
m/s
humid.,
%
clouds,
%
prec.,
mm/h
press.,
hPa
HPBL,
m
19 june, sat
sat1900:00+18se129491 0.4 102355
03:00+18s13958 0.9 102262
06:00+17wsw119699 0.2 102318
09:00+23se357464 0.9 1025966
12:00+25ese455785 0.9 10231476
15:00+24ese455855 0.9 10211359
18:00+19ese2283100 0.1 102361
21:00+20ese2887100 0.4 1024260
20 june, sun
sun2000:00+20ese1587100 0.1 1023153
03:00+20nne1184100 0.1 102116
06:00+20nne1284100 0.0 102148
09:00+24nne246225 0.0 10221088
12:00+28n344969 0.0 10191763
15:00+25ne3564100 0.1 1017593
18:00+22ne39780 0.0 1018436
21:00+20ne311860 0.0 1019386
21 june, mon
mon2100:00+20nne311890 0.0 1019434
03:00+18nne29978 0.0 1017277
06:00+18nnw269813 0.0 1018157
09:00+25nnw23640 0.0 1020642
12:00+31wnw11430 0.0 10181354
15:00+29ese43520 0.0 1016858
18:00+22ese27880 0.0 1018254
21:00+21ese279324 0.0 1020220
22 june, tue
tue2200:00+22ne1190100 0.1 102057
03:00+21sse1194100 0.6 101830
06:00+21s1597100 0.7 1019267
09:00+22ssw139199 0.9 1021310
12:00+23sse118499 0.3 1019476
15:00+26ese216743 0.4 1017922
18:00+21ese259210 0.0 1017124
21:00+20ese24955 0.0 101992
23 june, wed
wed2300:00+20se119748 0.0 101921
03:00+21s1694100 0.4 1019234
06:00+20s279697 0.9 1020439
09:00+22s278887 1.3 1022545
12:00+26sse465638 0.3 10201417
15:00+25sse566347 0.4 10191132
18:00+22sse397468 0.0 1020628
21:00+20s268329 0.0 1021213